HB9TUO-2 Weather Reports


time (UTC)temp
F
wind
direction
speed
knots
gust
knots
rain 1hr
in
rain 24hr
in
rain mn
in
humidity
%
barometer
mb
20260505224004 46 309 0.0 1.7 0.05 1.03 0.04 99 1008.9
20260505223504 46 315 0.0 0.9 0.05 1.03 0.04 99 1009.1
20260505223004 46 318 0.0 1.7 0.06 1.03 0.04 99 1009.1
20260505222504 46 331 0.0 1.7 0.07 1.03 0.04 99 1009.2
20260505222004 46 51 0.0 0.9 0.07 1.03 0.04 99 1009.2
20260505221713 46 320 0.0 1.7 0.07 1.03 0.04 99 1009.4
20260505221004 45 315 0.0 1.7 0.07 1.02 0.02 99 1009.4
20260505220504 46 0 0.0 0.0 0.06 0.99 0.00 99 1009.5
20260505220004 46 360 0.0 0.9 0.06 0.99 0.00 99 1009.3
20260505215715 45 340 0.0 0.9 0.06 0.99 0.99 99 1009.3
20260505215003 45 323 0.0 1.7 0.05 0.98 0.98 99 1009.3
20260505214504 45 22 0.9 1.7 0.06 0.98 0.98 99 1009.5
20260505214214 45 61 0.0 0.9 0.06 0.98 0.98 99 1009.5
20260505213503 45 327 0.0 1.7 0.08 0.97 0.97 99 1009.5
20260505213003 45 315 0.9 1.7 0.09 0.97 0.97 99 1009.6
20260505212718 45 315 0.0 1.7 0.09 0.96 0.96 99 1009.8
20260505212003 45 120 0.0 1.7 0.11 0.96 0.96 99 1009.7
20260505211503 45 115 0.0 1.7 0.09 0.94 0.94 99 1009.9
20260505211003 45 281 0.0 1.7 0.09 0.94 0.94 99 1009.7
20260505210503 45 244 0.0 0.9 0.09 0.93 0.93 99 1009.8
20260505210004 45 114 0.0 1.7 0.09 0.93 0.93 99 1009.9
20260505205715 45 17 0.0 2.6 0.09 0.93 0.93 99 1009.7
20260505205004 45 317 0.9 3.5 0.11 0.93 0.93 99 1010.0
20260505204503 45 311 1.7 3.5 0.09 0.92 0.92 99 1009.8
20260505204004 45 167 2.6 3.5 0.09 0.91 0.91 99 1010.0
20260505203718 45 134 0.0 1.7 0.08 0.89 0.89 99 1010.0
20260505203003 45 15 0.9 1.7 0.06 0.86 0.86 99 1010.1
20260505202503 45 315 0.0 1.7 0.06 0.86 0.86 99 1009.8
20260505202004 45 291 0.9 0.9 0.05 0.85 0.85 99 1009.8
20260505201503 45 268 0.0 1.7 0.05 0.85 0.85 99 1009.9
20260505201003 45 204 0.0 1.7 0.05 0.85 0.85 99 1009.7
20260505200503 45 147 0.0 0.9 0.04 0.84 0.84 99 1009.7
20260505200003 45 70 0.0 1.7 0.05 0.84 0.84 99 1009.7
20260505195716 45 337 0.0 1.7 0.05 0.84 0.84 99 1009.7
20260505195003 45 315 1.7 2.6 0.04 0.83 0.83 99 1009.6
20260505194503 45 313 0.9 2.6 0.04 0.83 0.83 99 1009.7
20260505194215 45 163 0.9 2.6 0.04 0.81 0.81 99 1009.7
20260505193503 45 117 0.0 1.7 0.02 0.80 0.80 99 1009.8
20260505193216 45 94 0.0 0.9 0.02 0.80 0.80 99 1009.5
20260505192504 45 108 0.0 1.7 0.04 0.80 0.80 99 1009.6
20260505192004 45 326 0.9 1.7 0.04 0.80 0.80 99 1009.7
20260505191504 45 308 0.0 1.7 0.05 0.80 0.80 99 1009.6
20260505191004 45 96 0.9 1.7 0.05 0.80 0.80 99 1009.7
20260505190504 45 111 0.0 1.7 0.05 0.80 0.80 99 1009.5
20260505190004 45 124 0.9 1.7 0.04 0.79 0.79 99 1009.8
20260505185717 45 135 0.0 0.9 0.04 0.79 0.79 99 1009.5
20260505185004 45 135 0.0 1.7 0.05 0.79 0.79 99 1009.7
20260505184504 45 135 0.0 1.7 0.05 0.79 0.79 99 1009.5
20260505184216 45 135 0.0 1.7 0.04 0.78 0.79 99 1009.6
20260505183714 45 315 0.0 0.9 0.05 0.78 0.78 99 1009.6
20260505183004 45 317 0.0 1.7 0.05 0.78 0.78 99 1009.3
20260505182504 45 314 0.9 2.6 0.05 0.77 0.77 99 1009.3
20260505182004 45 304 1.7 2.6 0.05 0.77 0.77 99 1009.3
20260505181504 46 104 0.0 1.7 0.04 0.76 0.76 99 1009.6
20260505181213 46 62 0.0 1.7 0.04 0.76 0.76 99 1009.5
20260505180504 46 328 0.0 1.7 0.05 0.76 0.76 99 1009.4
20260505180003 46 314 0.0 1.7 0.05 0.76 0.76 99 1009.2
20260505175503 46 309 0.9 1.7 0.05 0.76 0.76 99 1009.5
20260505175215 46 161 1.7 1.7 0.04 0.74 0.74 99 1009.5
20260505174503 46 138 0.0 0.9 0.04 0.74 0.74 99 1009.5
20260505174003 46 313 0.0 0.9 0.02 0.73 0.73 99 1009.4
20260505173503 46 315 0.0 0.9 0.02 0.73 0.73 99 1009.6
20260505173003 46 315 0.0 0.9 0.04 0.73 0.73 99 1009.7
20260505172503 46 110 0.0 0.9 0.02 0.72 0.72 99 1009.4
20260505172003 46 56 0.0 0.9 0.02 0.72 0.72 99 1009.6
20260505171503 46 315 0.0 0.9 0.02 0.72 0.72 99 1009.4
20260505171214 46 315 0.0 0.9 0.02 0.72 0.72 99 1009.6
20260505170503 46 315 0.0 0.9 0.01 0.71 0.71 99 1009.4
20260505170215 46 315 0.0 0.9 0.01 0.71 0.71 99 1009.4
20260505165503 46 0 0.0 0.0 0.01 0.71 0.71 99 1009.6
20260505165003 46 315 0.0 0.9 0.01 0.71 0.71 99 1009.6
20260505164503 46 315 0.0 0.9 0.01 0.71 0.71 99 1009.5
20260505164003 46 315 0.0 0.9 0.01 0.71 0.71 99 1009.7
20260505163715 46 315 0.0 0.9 0.01 0.71 0.71 99 1009.7
20260505163218 46 315 0.0 0.9 0.01 0.70 0.70 99 1009.9
20260505162504 46 180 0.0 0.9 0.01 0.70 0.70 99 1009.8
20260505162004 46 151 0.0 0.9 0.01 0.70 0.70 99 1009.5
20260505161504 46 135 0.0 0.9 0.01 0.70 0.70 99 1009.6
20260505161004 46 135 0.0 0.9 0.01 0.70 0.70 99 1009.6
20260505160504 46 136 0.0 0.9 0.01 0.70 0.70 99 1009.6
20260505160216 46 167 0.0 0.9 0.01 0.70 0.70 99 1009.6
20260505153004 46 129 0.0 1.7 0.00 0.69 0.69 99 1010.0
20260505152717 46 128 0.9 0.9 0.01 0.69 0.69 99 1010.0
20260505152004 46 144 0.0 0.9 0.01 0.69 0.69 99 1009.9
20260505151504 46 149 0.0 0.9 0.01 0.69 0.69 99 1009.8
20260505151004 45 138 0.0 0.9 0.01 0.69 0.69 99 1009.8
20260505150503 45 136 0.0 1.7 0.02 0.69 0.69 99 1010.0
20260505140503 46 142 0.0 1.7 0.02 0.66 0.66 99 1010.2
20260505130218 47 154 0.9 1.7 0.04 0.64 0.64 98 1010.4
20260505124504 47 139 0.0 1.7 0.02 0.63 0.63 98 1010.3
20260505124004 46 159 0.0 1.7 0.02 0.61 0.61 98 1010.3
20260505123504 46 154 0.9 1.7 0.02 0.61 0.61 97 1010.5
20260505123215 46 140 0.9 1.7 0.02 0.61 0.61 97 1010.4
20260505122504 46 131 0.0 1.7 0.01 0.60 0.60 97 1010.4
20260505122004 46 125 0.9 1.7 0.01 0.60 0.60 96 1010.4
20260505121504 46 117 0.9 1.7 0.01 0.60 0.60 96 1010.5
20260505121004 47 317 0.9 1.7 0.02 0.60 0.60 96 1010.6
20260505120504 46 314 1.7 2.6 0.02 0.60 0.60 96 1010.5
20260505120004 46 292 1.7 2.6 0.04 0.60 0.60 96 1010.3
20260505115716 46 221 1.7 1.7 0.04 0.60 0.60 95 1010.6
20260505115003 47 150 1.7 2.6 0.04 0.60 0.60 95 1010.5
20260505114504 47 176 1.7 1.7 0.05 0.60 0.60 95 1010.6
20260505114004 47 302 0.9 1.7 0.04 0.59 0.59 95 1010.5
20260505113504 47 96 0.9 1.7 0.04 0.59 0.59 95 1010.6
20260505113004 47 126 0.0 1.7 0.04 0.59 0.59 94 1010.7
20260505112714 47 135 0.0 1.7 0.04 0.59 0.59 94 1010.7
20260505112004 46 265 0.0 1.7 0.05 0.59 0.59 94 1010.6
20260505111715 46 266 0.0 1.7 0.05 0.59 0.59 94 1010.8
20260505111003 46 280 0.9 1.7 0.04 0.58 0.58 94 1010.9
20260505110503 45 237 0.9 1.7 0.04 0.58 0.58 98 1011.0
20260505102003 46 137 0.0 1.7 0.02 0.54 0.54 93 1010.9
20260505101503 46 132 0.9 1.7 0.02 0.54 0.54 93 1011.0
20260505101003 46 132 0.9 1.7 0.02 0.54 0.54 94 1011.0
20260505100503 46 135 0.9 1.7 0.02 0.54 0.54 97 1010.8
20260505100003 46 315 0.9 1.7 0.04 0.54 0.54 97 1010.9
20260505095503 45 315 0.0 1.7 0.02 0.53 0.53 99 1010.8
20260505095003 46 242 0.0 1.7 0.02 0.53 0.53 97 1010.8
20260505094503 46 140 0.0 1.7 0.02 0.53 0.53 97 1011.0
20260505094003 46 110 0.0 1.7 0.02 0.53 0.53 97 1011.0
20260505093714 46 325 0.9 1.7 0.02 0.53 0.53 97 1010.7
20260505093003 45 313 1.7 2.6 0.04 0.53 0.53 99 1010.8
20260505092504 45 292 1.7 1.7 0.02 0.52 0.52 99 1010.9
20260505092004 46 165 1.7 1.7 0.04 0.52 0.52 97 1010.9
20260505091504 46 137 0.9 1.7 0.05 0.52 0.52 97 1011.1
20260505091214 46 329 0.9 2.6 0.05 0.52 0.52 97 1011.0
20260505090504 45 316 0.9 3.5 0.09 0.52 0.52 99 1010.7
20260505090004 44 312 2.6 3.5 0.08 0.51 0.51 99 1010.8
20260505085504 45 258 1.7 2.6 0.09 0.51 0.51 99 1010.8
20260505085004 45 169 0.0 1.7 0.12 0.51 0.51 99 1010.9
20260505084504 45 154 0.0 1.7 0.14 0.51 0.51 99 1010.9
20260505084004 45 311 0.0 1.7 0.17 0.51 0.51 99 1010.9
20260505083504 45 311 0.0 1.7 0.18 0.51 0.51 99 1010.9
20260505083004 45 300 1.7 1.7 0.19 0.50 0.50 99 1010.8
20260505082503 45 284 0.0 1.7 0.20 0.50 0.50 99 1011.1
20260505082214 45 283 0.0 1.7 0.20 0.48 0.48 99 1010.8
20260505081717 45 178 0.0 1.7 0.20 0.47 0.47 99 1011.0
20260505081003 45 140 0.0 1.7 0.21 0.46 0.46 99 1010.7
20260505080504 45 134 0.9 1.7 0.20 0.43 0.43 99 1011.2
20260505080004 45 125 0.9 1.7 0.20 0.43 0.43 99 1010.9
20260505075504 45 142 1.7 1.7 0.19 0.40 0.40 99 1010.8
20260505075003 45 133 0.0 1.7 0.18 0.38 0.38 99 1010.8
20260505074504 45 118 0.0 1.7 0.17 0.37 0.37 99 1010.6
20260505074003 45 148 1.7 1.7 0.15 0.34 0.34 99 1010.7
20260505073503 45 268 0.0 0.9 0.14 0.32 0.32 99 1010.6
20260505073004 45 176 0.0 0.9 0.14 0.31 0.31 99 1010.9
20260505072503 45 125 0.0 0.9 0.14 0.30 0.30 99 1010.8
20260505072003 45 112 0.0 0.9 0.13 0.28 0.28 98 1010.7
20260505071504 45 315 0.0 0.9 0.12 0.26 0.26 98 1010.7
20260505071004 45 315 0.0 0.9 0.13 0.25 0.25 98 1010.8
20260505070503 45 0 0.0 0.0 0.12 0.22 0.22 98 1010.8
20260505070003 45 117 0.0 0.9 0.12 0.22 0.22 98 1010.7
20260505065504 45 28 0.0 1.7 0.12 0.21 0.21 98 1010.7
20260505065003 45 353 0.0 1.7 0.11 0.20 0.20 97 1010.8
20260505064504 45 324 0.0 1.7 0.12 0.20 0.20 97 1010.6
20260505064003 45 315 1.7 1.7 0.12 0.19 0.19 96 1010.6
20260505063716 45 315 0.9 1.7 0.12 0.19 0.19 96 1010.8
20260505063003 45 316 1.7 1.7 0.11 0.17 0.17 94 1010.9
20260505062503 45 36 0.9 0.9 0.11 0.15 0.15 94 1010.8
20260505062215 45 90 0.0 0.9 0.11 0.15 0.15 94 1010.7
20260505061713 45 104 0.0 0.9 0.09 0.14 0.14 93 1010.7
20260505061003 45 360 0.0 0.9 0.08 0.12 0.12 93 1010.6
20260505060714 45 360 0.0 0.9 0.09 0.12 0.12 93 1010.9
20260505060004 45 360 0.0 0.9 0.08 0.11 0.11 93 1010.6
20260505055504 45 360 0.0 0.9 0.07 0.09 0.09 92 1010.8
20260505055004 45 350 0.0 0.9 0.08 0.09 0.09 92 1010.8
20260505054504 46 315 0.0 1.7 0.07 0.08 0.08 87 1010.8
20260505054004 46 330 0.0 1.7 0.06 0.07 0.07 86 1010.8
20260505053504 46 16 0.0 0.9 0.06 0.07 0.07 85 1010.6
20260505053004 46 90 0.0 0.9 0.05 0.06 0.06 84 1010.6
20260505052504 46 90 0.0 0.9 0.04 0.05 0.05 84 1010.6
20260505052216 46 85 0.0 0.9 0.04 0.05 0.05 84 1010.6
20260505051504 46 40 0.0 0.9 0.02 0.04 0.04 83 1010.7
20260505051004 46 10 0.0 0.9 0.02 0.04 0.04 82 1010.5
20260505050714 46 360 0.0 0.9 0.01 0.02 0.02 81 1010.4
20260505041503 47 318 0.9 2.6 0.01 0.01 0.01 76 1010.2
20260505041217 47 317 0.9 2.6 0.01 0.01 0.01 76 1010.2
20260505040504 47 322 1.7 2.6 0.00 0.00 0.00 75 1010.4
20260505040213 47 323 1.7 2.6 0.00 0.00 0.00 75 1010.3
20260505035503 48 358 0.9 1.7 0.00 0.00 0.00 73 1010.2
20260505035004 48 330 0.9 3.5 0.00 0.00 0.00 73 1010.2
20260505034503 48 315 1.7 3.5 0.00 0.00 0.00 74 1010.3
20260505034215 48 315 1.7 3.5 0.00 0.00 0.00 73 1010.3
20260505033503 49 325 0.9 1.7 0.00 0.00 0.00 70 1010.5
20260505033003 49 87 0.0 0.9 0.00 0.00 0.00 66 1010.5
20260505032503 49 35 0.0 0.9 0.00 0.00 0.00 64 1010.5
20260505032003 49 353 0.0 1.7 0.00 0.00 0.00 64 1010.2
20260505031503 49 335 0.0 1.7 0.00 0.00 0.00 64 1010.4
20260505031003 49 315 0.0 1.7 0.00 0.00 0.00 63 1010.4
20260505030503 50 324 0.0 1.7 0.00 0.00 0.00 63 1010.5
20260505030003 50 319 0.0 1.7 0.00 0.00 0.00 63 1010.4
20260505025503 50 316 0.9 1.7 0.00 0.00 0.00 62 1010.5
20260505025003 50 328 0.9 1.7 0.00 0.00 0.00 62 1010.5
20260505024503 50 12 0.0 0.9 0.00 0.00 0.00 61 1010.5
20260505024216 50 335 0.0 1.7 0.00 0.00 0.00 61 1010.8
20260505023503 50 317 0.0 2.6 0.00 0.00 0.00 61 1010.7
20260505023003 50 315 1.7 2.6 0.00 0.00 0.00 61 1010.8
20260505022503 50 315 0.9 1.7 0.00 0.00 0.00 61 1011.0
20260505022003 50 315 0.9 1.7 0.00 0.00 0.00 63 1010.8
20260505021504 50 321 1.7 1.7 0.00 0.00 0.00 64 1010.8
20260505021218 50 323 1.7 1.7 0.00 0.00 0.00 64 1011.1
20260505020716 49 321 0.9 1.7 0.00 0.00 0.00 63 1011.1
20260505020004 49 315 0.0 0.9 0.00 0.00 0.00 62 1011.3
20260505015504 50 0 0.0 0.0 0.00 0.00 0.00 62 1011.2
20260505015004 50 0 0.0 0.0 0.00 0.00 0.00 61 1011.2
20260505014504 50 0 0.0 0.0 0.00 0.00 0.00 61 1011.2
20260505014004 50 335 0.0 1.7 0.00 0.00 0.00 61 1011.1
20260505013504 50 335 0.0 1.7 0.00 0.00 0.00 61 1011.2
20260505013004 50 341 0.9 1.7 0.00 0.00 0.00 61 1011.4
20260505012504 50 329 0.9 2.6 0.00 0.00 0.00 61 1011.4
20260505012004 50 317 0.0 2.6 0.00 0.00 0.00 61 1011.4
20260505011504 50 315 0.0 0.9 0.00 0.00 0.00 61 1011.5
20260505011004 50 315 0.0 0.9 0.00 0.00 0.00 61 1011.5
20260505010504 50 321 0.0 1.7 0.00 0.00 0.00 61 1011.5
20260505010004 50 325 0.0 2.6 0.00 0.00 0.00 61 1011.6
20260505005718 50 323 0.9 2.6 0.00 0.00 0.00 61 1011.6
20260505005216 50 329 1.7 2.6 0.00 0.00 0.00 61 1011.7
20260505004714 50 351 0.9 1.7 0.00 0.00 0.00 61 1011.8
20260505004217 50 358 0.0 0.9 0.00 0.00 0.00 61 1012.0
20260505003504 50 352 0.0 1.7 0.00 0.00 0.00 61 1012.1
20260505003213 50 4 0.0 1.7 0.00 0.00 0.00 61 1012.1
20260505002503 50 37 0.0 0.9 0.00 0.00 0.00 61 1012.3
20260505002003 50 0 0.0 0.0 0.00 0.00 0.00 60 1012.1
20260505001717 50 360 0.0 0.9 0.00 0.00 0.00 60 1012.3
20260505001003 50 318 0.0 2.6 0.00 0.00 0.00 60 1012.3
20260505000504 50 320 1.7 2.6 0.00 0.00 0.00 61 1012.6
20260505000216 50 328 1.7 2.6 0.00 0.00 0.00 61 1012.8
20260504235713 50 4 0.0 0.9 0.00 0.00 0.00 61 1012.7
20260504235003 50 2 0.0 0.9 0.00 0.00 0.00 61 1012.8
20260504234503 50 315 0.0 0.9 0.00 0.00 0.00 61 1012.9
20260504234003 50 315 0.0 0.9 0.00 0.00 0.00 61 1012.8
20260504233503 50 315 0.0 1.7 0.00 0.00 0.00 61 1012.8
20260504233003 51 315 0.0 1.7 0.00 0.00 0.00 61 1012.9
20260504232503 51 315 0.0 1.7 0.00 0.00 0.00 60 1013.2
20260504232003 51 308 0.0 5.2 0.00 0.00 0.00 60 1013.0
20260504231503 51 308 1.7 5.2 0.00 0.00 0.00 60 1013.1
20260504231003 51 315 2.6 3.5 0.00 0.00 0.00 60 1013.2
20260504230713 51 322 1.7 2.6 0.00 0.00 0.00 60 1013.2
20260504230003 51 335 0.9 1.7 0.00 0.00 0.00 60 1013.3
20260504225503 51 326 0.9 2.6 0.00 0.00 0.00 59 1013.5
20260504225004 51 339 0.9 2.6 0.00 0.00 0.00 60 1013.7
20260504224504 51 360 0.0 1.7 0.00 0.00 0.00 60 1013.5